GW3210 Weather Reports


time (UTC)temp
C
wind
direction
speed
KPH
gust
KPH
rain 1hr
cm
rain 24hr
cm
rain mn
cm
humidity
%
barometer
mb
20260902224616 14 158 3.2 6.4 0.03 0.97 0.97 83 1008.8
20260902223616 14 0.0 1.6 0.03 0.97 0.97 83 1008.8
20260902222616 13 135 3.2 4.8 0.03 0.97 0.97 83 1008.9
20260902221616 13 90 4.8 9.7 0.05 0.97 0.97 83 1008.9
20260902220616 14 90 3.2 6.4 0.08 0.97 0.97 83 1008.8
20260902215616 14 90 3.2 4.8 0.10 0.97 0.97 83 1008.9
20260902214636 14 68 3.2 8.0 0.10 0.94 0.94 83 1008.7
20260902213616 14 158 3.2 4.8 0.15 0.94 0.94 83 1008.8
20260902212616 13 113 4.8 9.7 0.23 0.94 0.94 83 1008.7
20260902211616 13 135 4.8 8.0 0.25 0.91 0.91 82 1008.8
20260902210616 13 113 1.6 4.8 0.28 0.89 0.89 82 1008.7
20260902205616 13 90 3.2 6.4 0.33 0.86 0.86 81 1008.6
20260902204616 13 113 4.8 6.4 0.33 0.84 0.84 80 1008.4
20260902203615 13 90 6.4 12.9 0.30 0.79 0.79 80 1008.2
20260902202616 13 90 4.8 6.4 0.25 0.71 0.71 78 1008.3
20260902201616 13 90 1.6 3.2 0.23 0.66 0.66 78 1008.4
20260902200616 13 68 3.2 4.8 0.20 0.61 0.61 78 1008.5
20260902195616 14 90 4.8 11.3 0.15 0.53 0.53 78 1008.4
20260902194615 14 90 3.2 4.8 0.18 0.51 0.51 77 1008.5
20260902193615 14 90 4.8 9.7 0.20 0.48 0.48 75 1008.7
20260902192636 14 68 1.6 4.8 0.23 0.46 0.46 74 1008.6
20260902191636 14 113 1.6 3.2 0.25 0.43 0.43 74 1008.8
20260902190615 14 90 3.2 4.8 0.30 0.41 0.41 70 1009.0
20260902185616 14 90 4.8 6.4 0.30 0.38 0.38 68 1009.2
20260902184616 15 158 1.6 3.2 0.30 0.33 0.33 66 1009.3
20260902183615 15 225 1.6 1.6 0.28 0.28 0.28 67 1009.5
20260902182616 15 225 1.6 3.2 0.23 0.23 0.23 67 1009.7
20260902181615 15 0.0 1.6 0.18 0.18 0.18 66 1009.5
20260902180616 16 0.0 0.0 0.10 0.10 0.10 65 1009.4
20260902175615 16 0.0 0.0 0.08 0.08 0.08 65 1009.3
20260902174616 16 0.0 0.0 0.03 0.03 0.03 65 1009.1
20260902173616 16 90 1.6 1.6 0.00 0.00 0.00 64 1009.1
20260902172616 17 0.0 0.0 0.00 0.00 0.00 61 1009.1
20260902171616 17 0.0 1.6 0.00 0.00 0.00 61 1008.9
20260902170635 16 0.0 0.0 0.00 0.00 0.00 57 1008.9
20260902165616 16 90 1.6 4.8 0.00 0.00 0.00 58 1008.9
20260902164615 16 113 3.2 4.8 0.00 0.00 0.00 58 1008.8
20260902163615 16 113 1.6 3.2 0.00 0.00 0.00 59 1008.8
20260902162615 16 135 1.6 3.2 0.00 0.00 0.00 58 1008.9
20260902161615 16 68 3.2 6.4 0.00 0.00 0.00 58 1008.9
20260902160636 16 113 1.6 3.2 0.00 0.00 0.00 59 1008.9
20260902155615 16 90 4.8 9.7 0.00 0.00 0.00 59 1008.9
20260902154615 16 90 4.8 11.3 0.00 0.00 0.00 59 1009.0
20260902153615 15 90 3.2 6.4 0.00 0.00 0.00 60 1009.2
20260902152615 15 90 3.2 6.4 0.00 0.00 0.00 60 1009.2
20260902151635 15 90 4.8 9.7 0.00 0.00 0.00 62 1009.3
20260902150615 15 90 4.8 11.3 0.00 0.00 0.00 62 1009.3
20260902145635 15 90 4.8 8.0 0.00 0.00 0.00 62 1009.5
20260902144619 15 113 1.6 3.2 0.00 0.00 0.00 62 1009.5
20260902143617 15 90 3.2 3.2 0.00 0.00 0.00 62 1009.7
20260902142637 15 68 3.2 6.4 0.00 0.00 0.00 62 1009.9
20260902141617 15 90 1.6 3.2 0.00 0.00 0.00 62 1010.0
20260902140715 15 90 3.2 6.4 0.00 0.00 0.00 61 1010.2
20260902135617 15 90 3.2 6.4 0.00 0.00 0.00 62 1010.3
20260902134617 15 90 1.6 4.8 0.00 0.00 0.00 62 1010.4
20260902133617 14 90 1.6 3.2 0.00 0.00 0.00 62 1010.5
20260902132619 14 90 3.2 4.8 0.00 0.00 0.00 62 1010.7
20260902131617 15 90 1.6 4.8 0.00 0.00 0.00 62 1010.7
20260902130619 15 90 1.6 3.2 0.00 0.00 0.00 62 1010.9
20260902125617 15 90 1.6 6.4 0.00 0.00 0.00 62 1011.0
20260902124617 15 0.0 0.0 0.00 0.00 0.00 62 1011.2
20260902123617 15 113 1.6 4.8 0.00 0.00 0.00 62 1011.4
20260902122617 15 113 1.6 3.2 0.00 0.00 0.00 62 1011.6
20260902121637 15 113 3.2 4.8 0.00 0.00 0.00 62 1011.6
20260902120617 15 113 1.6 1.6 0.00 0.00 0.00 62 1011.7
20260902115617 15 0.0 1.6 0.00 0.00 0.00 62 1011.9
20260902114619 15 0.0 1.6 0.00 0.00 0.00 62 1011.8
20260902113617 15 113 3.2 4.8 0.00 0.00 0.00 61 1012.0
20260902112616 15 0.0 0.0 0.00 0.00 0.00 61 1012.1
20260902111616 15 135 1.6 3.2 0.00 0.00 0.00 61 1012.1
20260902110616 15 113 1.6 3.2 0.00 0.00 0.00 61 1012.3
20260902105617 15 135 3.2 4.8 0.00 0.00 0.00 61 1012.3
20260902104656 15 135 1.6 3.2 0.00 0.00 0.00 61 1012.4
20260902103638 15 0.0 0.0 0.00 0.00 0.00 61 1012.4
20260902102616 15 0.0 0.0 0.00 0.00 0.00 61 1012.5
20260902101616 15 0.0 1.6 0.00 0.00 0.00 60 1012.6
20260902100616 15 158 3.2 8.0 0.00 0.00 0.00 60 1012.5
20260902095616 15 135 1.6 4.8 0.00 0.00 0.00 61 1012.6
20260902094616 15 180 1.6 3.2 0.00 0.00 0.00 61 1012.7
20260902093617 15 135 4.8 11.3 0.00 0.00 0.00 62 1012.9
20260902092616 15 180 3.2 4.8 0.00 0.00 0.00 62 1012.8
20260902091617 15 158 3.2 6.4 0.00 0.00 0.00 61 1013.0
20260902090616 15 180 6.4 11.3 0.00 0.00 0.00 61 1013.1
20260902085636 15 135 4.8 8.0 0.00 0.00 0.00 61 1013.1
20260902084617 15 158 6.4 8.0 0.00 0.00 0.00 61 1013.1
20260902083617 15 158 4.8 6.4 0.00 0.00 0.00 61 1013.1
20260902082616 15 158 1.6 4.8 0.00 0.00 0.00 60 1013.1
20260902081616 16 158 3.2 6.4 0.00 0.00 0.00 60 1013.0
20260902080636 16 158 1.6 3.2 0.00 0.00 0.00 60 1013.0
20260902075616 16 0.0 1.6 0.00 0.00 0.00 59 1013.1
20260902074617 16 180 4.8 8.0 0.00 0.00 0.00 59 1013.2
20260902073616 16 135 1.6 3.2 0.00 0.00 0.00 59 1013.2
20260902065617 16 158 3.2 6.4 0.00 0.00 0.00 58 1013.5
20260902064617 16 180 3.2 6.4 0.00 0.00 0.00 58 1013.6
20260902063637 16 158 3.2 6.4 0.00 0.00 0.00 58 1013.6
20260902062617 16 135 1.6 3.2 0.00 0.00 0.00 58 1013.6
20260902061617 16 158 4.8 8.0 0.00 0.00 0.00 58 1013.5
20260902060616 16 158 3.2 3.2 0.00 0.00 0.00 57 1013.5
20260902055617 16 158 4.8 6.4 0.00 0.00 0.00 57 1013.7
20260902054637 16 203 3.2 8.0 0.00 0.00 0.00 57 1013.8
20260902053617 16 225 3.2 4.8 0.00 0.00 0.00 57 1013.8
20260902052617 16 158 1.6 6.4 0.00 0.00 0.00 57 1013.9
20260902051617 16 158 3.2 9.7 0.00 0.00 0.00 56 1013.7
20260902050617 16 158 1.6 3.2 0.00 0.00 0.00 56 1013.6
20260902045717 17 203 1.6 4.8 0.00 0.00 0.00 56 1013.5
20260902044617 17 180 3.2 8.0 0.00 0.00 0.00 56 1013.5
20260902043638 17 135 3.2 4.8 0.00 0.00 0.00 55 1013.5
20260902042617 17 270 4.8 8.0 0.00 0.00 0.00 55 1013.4
20260902041617 17 270 6.4 9.7 0.00 0.00 0.00 55 1013.4
20260902040617 17 248 1.6 3.2 0.00 0.00 0.00 55 1013.5
20260902035617 17 225 3.2 4.8 0.00 0.00 0.00 54 1013.3
20260902034617 17 248 3.2 4.8 0.00 0.00 0.00 54 1013.2
20260902033656 17 270 8.0 12.9 0.00 0.00 0.00 53 1013.1
20260902032617 17 270 6.4 11.3 0.00 0.00 0.00 53 1013.1
20260902031616 17 203 3.2 6.4 0.00 0.00 0.00 53 1013.2
20260902030617 17 248 3.2 4.8 0.00 0.00 0.00 52 1013.2
20260902025616 18 248 4.8 8.0 0.00 0.00 0.00 52 1013.2
20260902024616 18 225 4.8 9.7 0.00 0.00 0.00 52 1013.1
20260902023616 18 248 6.4 12.9 0.00 0.00 0.00 52 1013.0
20260902022616 18 180 1.6 3.2 0.00 0.00 0.00 51 1013.0
20260902021616 18 225 1.6 4.8 0.00 0.00 0.00 50 1012.9
20260902020617 18 225 4.8 6.4 0.00 0.00 0.00 50 1013.0
20260902015617 18 248 4.8 6.4 0.00 0.00 0.00 50 1013.0
20260902014616 18 0.0 1.6 0.00 0.00 0.00 50 1012.8
20260902013616 18 293 3.2 11.3 0.00 0.00 0.00 50 1012.9
20260902012616 18 225 4.8 6.4 0.00 0.00 0.00 49 1012.9
20260902011636 18 270 4.8 11.3 0.00 0.00 0.00 48 1012.9
20260902010616 19 225 6.4 9.7 0.00 0.00 0.00 48 1012.9
20260902005616 19 248 1.6 3.2 0.00 0.00 0.00 49 1012.6
20260902004656 19 270 3.2 6.4 0.00 0.00 0.00 49 1012.6
20260902003616 20 270 3.2 4.8 0.00 0.00 0.00 48 1012.5
20260902002618 20 270 3.2 6.4 0.00 0.00 0.00 47 1012.5
20260902001616 20 315 3.2 8.0 0.00 0.00 0.00 47 1012.5
20260902000617 20 293 4.8 9.7 0.00 0.00 0.00 48 1012.4
20260901235616 20 270 6.4 8.0 0.00 0.00 0.00 47 1012.7
20260901234636 20 203 4.8 8.0 0.00 0.00 0.00 47 1012.7
20260901233616 20 248 6.4 11.3 0.00 0.00 0.00 48 1012.6
20260901232616 20 225 1.6 3.2 0.00 0.00 0.00 49 1012.8
20260901231616 20 293 3.2 4.8 0.00 0.00 0.00 49 1012.9
20260901230616 20 293 8.0 11.3 0.00 0.00 0.00 48 1012.9
20260901225616 20 248 3.2 6.4 0.00 0.00 0.00 49 1012.9